World > North America > United States > New York

Hourly Pine Woods, NY Regional Weather

Feedback E-mail the Weather

Latest News

Pine Woods, NY Weather Maps

°F °C°F °C
Pine Woods Weather Map
UTC Time: 5/27/2022, 15:13
Your Time:

Pine Woods, NY Regional Weather

Expires:202205271600;;652029
ASUS41 KBGM 271510
RWRBGM

REGIONAL WEATHER ROUNDUP
NATIONAL WEATHER SERVICE BINGHAMTON NY
1100 AM EDT FRI MAY 27 2022

Note: "fair" indicates few or no clouds below 12,000 feet with no
significant weather and/or obstructions to visibility.

* = Station(s) that does not report precipitation, such as rain, 
snow, etc, also no thunder or fog.


NYZ009-015>018-022>025-036-037-044>046-055>057-062-271600
...Central New York...
  
CITY           SKY/WX    TMP DP  RH WIND       PRES   REMARKS
Binghamton     CLOUDY    66  62  87 S8        29.88F                  
Cortland       CLOUDY    70  63  78 S13G18    29.85F                  
Dansville      LGT RAIN  67  64  90 N6        29.82F                  
Elmira         CLOUDY    73  62  68 S13       29.82F                  
Ithaca         CLOUDY    70  64  81 S12       29.85F                  
Hamilton       CLOUDY    68  61  77 S9G18     29.87S                  
Monticello     CLOUDY    69  64  84 S8        29.94F                  
Norwich        CLOUDY    68  63  83 S9        29.90S                  
Oneonta        MOSUNNY   66  63  88 SW8       29.91S                  
Penn Yan       CLOUDY    71  61  70 S13       29.82F                  
Rome           CLOUDY    73  63  70 S9        29.84S                  
Seneca Falls   LGT RAIN  68  63  83 S12       29.80F                  
Sidney         CLOUDY    70  64  83 SW6       29.88F                  
Skaneateles    CLOUDY    70  66  88 VRB5G12   29.82F                  
Syracuse       CLOUDY    73  62  68 S14G25    29.81F                  
$$
 

SKY/WX - Weather  TMP - Temperature  DP - Dew Point  RH - Humidity
WIND - Wind Direction/Speed PRES - Barometric Pressure VSB - Visibility
WCI - Wind Chill Index E13G22 Wind - East Wind 13 mph/Gusts of 22 mph

Trending Headlines

Pine Woods Radar Loop



Pine Woods Quick Facts


National Two Day Weather Forecast


E-mail the Pine Woods Weather Forecast

Voice your opinion or tell us about page issues...